Theta_e
301 303 307 311 310 310 309 309 309 308 308 307 306 304 304 304 305 295 292 294 294 290 291 294 295 290 290 288 286 289 289 289 286 284 283 283 282 285 283 286 286 286 284 283 282 281 280 296 299 293 294 300 302 301
302 306 308 310 310 309 309 309 309 308 308 307 306 305 304 304 304 297 292 296 295 292 292 293 295 296 295 294 290 288 288 288 288 285 284 284 284 284 283 282 289 284 288 286 287 285 292 296 300 303 303 301 302 301
303 306 308 310 310 309 309 309 309 308 308 307 306 305 305 304 304 298 292 293 293 289 289 289 290 294 295 295 295 289 289 292 290 290 286 284 283 285 282 282 286 288 291 287 288 293 294 294 296 300 303 303 307 307
303 306 307 309 309 309 309 308 309 308 308 308 307 305 305 305 304 299 293 294 294 289 285 288 296 293 297 295 295 294 293 291 290 289 286 284 283 286 283 285 284 288 289 288 288 291 293 294 294 294 295 296 297 301
304 305 307 309 309 309 308 308 308 308 308 308 306 305 305 304 304 298 295 296 296 292 285 287 292 293 294 294 295 295 292 289 286 286 284 284 285 285 283 283 281 288 288 287 288 291 290 290 295 297 295 294 294 294
304 306 308 309 309 309 308 308 308 308 308 307 306 305 303 304 302 298 292 297 298 297 288 285 293 293 294 295 294 293 291 288 288 286 284 284 287 286 280 280 286 290 291 291 289 290 290 292 293 295 293 294 294 294
305 307 309 309 309 308 308 308 308 307 307 307 306 304 304 302 297 294 292 295 301 295 289 285 286 292 293 292 290 290 289 288 287 286 285 285 285 286 280 278 286 288 289 289 290 289 288 290 289 292 293 295 296 296
308 308 309 309 309 308 308 308 307 307 307 306 304 305 303 302 299 294 295 301 297 291 290 284 284 286 292 287 286 288 287 287 286 286 285 285 284 283 280 285 287 288 289 289 290 290 291 291 291 292 293 293 293 293
308 308 308 309 308 308 307 307 307 307 305 305 304 303 297 294 291 293 303 300 295 291 283 284 281 280 289 285 286 286 286 283 285 283 283 284 280 279 284 285 286 288 288 289 291 291 290 290 291 292 292 292 292 292
308 308 308 308 307 307 306 307 306 305 305 304 297 293 288 292 302 303 294 289 288 288 286 282 283 280 285 283 282 283 281 281 279 282 284 280 280 286 288 287 288 289 290 291 288 289 290 290 291 292 293 294 295 295
308 308 308 308 307 306 305 305 304 304 301 295 292 292 295 302 294 291 286 284 283 282 283 283 283 279 286 280 279 280 278 279 277 280 281 278 278 284 288 290 292 293 294 294 294 294 293 293 294 295 296 297 298 298
304 305 305 305 305 304 304 303 302 297 296 297 297 297 294 291 287 285 283 284 282 281 284 283 284 284 285 286 282 282 282 281 278 282 280 277 281 285 290 293 294 294 294 294 295 295 296 296 297 296 296 297 298 299
302 303 303 303 303 302 301 301 302 301 300 296 293 290 287 285 276 280 279 280 280 284 285 285 284 285 286 284 279 282 281 280 283 280 278 280 283 288 291 292 293 294 294 294 295 296 296 296 298 297 297 298 298 298
301 301 301 301 301 302 301 301 301 300 295 289 286 278 280 280 281 280 281 282 285 285 286 285 279 279 281 280 282 281 282 282 279 277 278 282 285 289 291 293 292 293 294 294 295 296 296 296 296 297 296 296 296 296
302 302 302 301 302 301 301 301 300 296 292 287 284 275 280 282 282 283 284 283 284 285 286 284 283 282 279 280 281 281 280 279 280 279 281 283 286 288 290 291 292 292 293 293 294 294 295 295 294 294 296 297 298 299
301 301 300 302 302 302 300 298 295 293 290 287 284 282 281 280 280 281 281 282 285 285 285 283 281 279 278 280 279 280 279 278 279 283 284 285 287 288 289 291 292 293 293 293 294 294 294 294 294 295 297 298 299 298
299 294 301 302 302 301 301 294 291 289 286 285 283 284 282 282 281 281 282 283 286 286 282 282 281 282 282 280 281 281 280 282 282 284 286 286 287 290 291 292 293 293 293 294 294 295 295 296 297 297 296 298 299 299
291 295 300 300 297 296 293 292 289 287 284 285 281 282 282 283 282 284 285 285 286 285 284 284 285 280 279 280 280 283 284 284 287 288 289 291 291 292 293 293 294 294 294 295 295 296 296 296 296 296 297 299 299 299
293 295 300 299 294 290 288 288 287 282 282 282 282 282 282 283 284 286 288 288 288 287 286 283 281 276 280 282 283 284 287 288 288 290 292 293 295 295 295 295 295 295 296 296 296 296 297 297 297 297 298 298 298 299
299 299 299 299 296 288 287 286 287 283 281 282 283 283 284 285 286 287 287 287 286 285 283 281 282 283 283 288 291 290 290 291 291 290 290 293 295 296 295 296 296 297 297 297 297 295 297 297 298 299 299 300 299 299
296 296 298 294 290 288 286 285 288 285 285 283 285 284 283 285 284 284 284 292 287 282 285 287 287 291 293 293 293 293 292 292 291 291 291 291 294 295 295 296 296 296 295 296 295 296 295 296 298 301 301 303 302 302
296 300 292 294 290 291 287 288 286 288 284 284 284 290 287 284 286 290 293 289 288 286 291 292 292 292 292 291 292 294 294 294 294 293 293 293 292 294 295 297 297 296 296 297 297 297 298 300 302 303 304 304 302 304
299 296 295 294 288 285 284 291 286 287 285 285 287 287 287 288 291 294 287 289 290 294 294 294 294 294 293 294 294 295 296 295 294 295 296 297 298 299 299 300 299 297 297 298 301 301 301 297 301 303 304 304 303 302
298 291 286 286 286 284 289 287 289 287 287 286 284 284 286 288 291 287 284 286 289 293 292 292 293 292 294 294 294 295 296 298 297 298 300 299 298 300 301 302 302 302 302 302 303 303 303 303 299 303 303 302 302 300
284 284 287 281 287 284 284 284 286 285 285 287 285 285 288 291 285 284 283 287 288 290 292 293 293 293 292 293 294 295 298 298 298 297 300 302 302 304 304 305 304 305 307 304 304 303 303 303 302 302 303 303 301 299
283 286 284 285 286 284 284 284 285 286 288 286 287 288 289 287 281 279 284 286 289 291 292 292 292 292 293 294 294 295 297 301 300 299 302 303 302 302 303 303 302 304 307 306 304 303 303 303 302 302 301 300 293 298
282 284 289 293 291 290 288 289 289 288 285 285 284 284 282 281 278 281 288 292 291 294 295 295 295 294 294 295 297 299 300 301 302 302 305 306 308 307 304 303 304 305 307 307 306 305 302 302 302 302 302 302 300 299
287 286 286 290 289 291 289 288 287 286 286 287 285 283 281 279 280 288 290 293 295 295 295 296 297 297 297 297 299 300 301 303 304 307 307 308 308 308 307 305 305 297 308 308 306 305 304 304 303 303 303 300 298 298
286 288 289 288 289 289 288 288 287 289 291 287 284 283 284 288 293 293 294 294 295 294 294 294 295 297 298 299 300 301 301 302 299 298 300 300 302 304 307 307 308 308 306 300 290 299 304 304 304 304 303 299 298 297
287 291 289 291 290 288 289 291 290 292 292 291 290 289 289 290 294 296 294 294 293 293 294 294 295 296 296 295 296 298 301 302 301 299 299 300 302 305 306 306 306 303 301 300 298 296 290 298 296 301 299 298 297 296
295 293 292 292 289 290 292 293 295 295 294 292 292 289 288 291 293 296 294 293 294 294 293 293 294 295 296 295 295 296 296 299 300 299 300 304 305 305 305 305 304 303 303 302 301 301 300 300 300 299 298 297 295 295
295 293 291 289 289 292 294 292 292 292 292 292 290 291 291 289 287 289 293 292 290 291 290 292 293 294 296 297 299 300 291 300 294 294 295 298 300 302 305 305 304 303 302 301 301 301 300 300 299 298 297 297 296 296
290 291 290 289 289 290 292 293 291 289 290 289 289 290 289 287 286 289 292 292 290 289 291 293 295 296 297 299 299 299 296 302 296 289 290 288 287 290 299 303 305 303 302 301 301 300 300 299 298 298 298 297 297 296
Wind_Speed
20 19 17 24 25 24 23 21 19 17 16 14 11 7 3 2 5 2 0 2 4 3 4 2 1 2 1 2 3 3 4 3 3 3 4 5 4 5 1 4 4 6 6 5 2 2 8 3 2 1 4 3 2 2
19 19 13 22 24 25 24 22 20 18 16 15 13 9 5 2 4 3 2 3 1 4 4 2 4 4 5 6 5 1 3 3 4 4 1 2 2 1 3 4 1 3 6 5 8 7 4 3 2 1 4 3 2 1
18 16 12 18 23 24 24 22 21 19 17 15 13 10 7 4 5 4 3 1 4 3 4 3 3 1 2 6 5 4 2 2 1 2 4 1 3 4 4 6 3 2 2 2 1 2 3 1 1 2 3 3 3 4
18 14 13 19 24 25 25 24 22 20 19 16 14 12 9 6 5 4 3 0 3 3 1 6 2 5 2 4 5 4 5 4 5 3 3 3 2 3 4 3 4 5 2 3 3 4 4 4 2 1 3 5 5 5
17 16 15 19 24 26 26 25 24 21 19 17 16 13 10 7 5 4 2 1 1 4 3 4 6 3 6 5 8 7 6 4 2 2 2 3 2 2 1 1 3 4 7 5 11 7 5 6 5 3 4 7 9 8
18 18 17 23 25 25 27 27 25 22 20 19 17 13 8 5 4 1 2 1 1 1 3 3 3 4 5 4 7 7 4 4 3 4 3 2 4 3 3 3 7 6 3 3 6 4 7 6 7 8 11 11 10 8
18 17 20 22 23 27 28 27 26 24 22 20 17 14 9 6 1 2 3 2 2 1 3 3 4 3 3 3 2 3 3 2 3 3 2 3 2 4 3 4 7 7 7 6 7 2 5 6 8 8 7 12 10 8
15 16 19 20 23 26 29 29 27 24 21 20 17 14 9 4 2 2 2 2 3 4 3 0 4 3 4 1 2 2 3 2 1 3 1 3 1 1 4 10 8 8 7 7 11 8 12 10 7 10 9 7 9 10
13 14 16 20 23 26 28 29 27 24 23 21 18 15 4 2 2 2 6 7 2 3 3 1 1 2 4 2 1 3 2 1 1 2 3 4 2 6 9 9 8 9 7 7 8 9 9 8 12 12 8 8 8 11
14 17 18 23 27 28 29 28 28 26 23 20 5 2 2 3 4 8 4 3 4 3 3 2 1 3 1 2 1 2 2 2 1 5 2 3 5 11 11 8 7 7 9 7 4 6 4 6 6 7 7 7 8 9
17 19 22 26 29 31 31 29 28 25 16 2 3 2 1 3 3 3 2 2 1 1 1 3 4 2 1 2 1 1 2 1 1 4 2 2 5 7 8 6 5 7 7 8 7 7 7 7 7 9 11 11 10 11
29 29 31 31 33 32 29 27 24 6 3 4 5 5 3 3 3 3 1 1 2 3 2 3 4 4 2 2 3 2 0 1 5 1 0 4 6 5 4 7 8 7 8 9 8 10 9 9 10 11 12 13 13 14
29 28 28 29 29 29 26 17 11 13 6 2 4 4 3 0 4 4 5 2 2 3 4 3 1 2 2 3 3 2 1 5 1 1 5 7 4 5 7 5 7 7 8 8 9 8 10 13 12 14 16 13 15 16
24 25 24 24 22 17 15 11 7 4 2 3 4 4 3 2 3 4 3 4 4 2 3 2 2 3 1 3 2 1 3 1 3 4 7 5 6 7 6 5 4 9 10 11 13 14 16 16 17 16 15 16 17 17
19 18 17 16 13 11 6 6 4 2 2 3 4 3 3 2 1 2 3 1 2 3 3 3 3 3 1 3 2 1 3 5 6 6 5 4 4 4 6 6 8 9 11 12 14 16 16 17 16 18 17 16 15 15
12 12 6 10 8 6 4 3 3 2 3 3 2 4 1 3 2 1 1 2 2 3 3 3 3 3 2 3 2 6 3 7 6 5 4 3 5 7 8 9 12 14 15 15 14 14 15 16 17 17 17 16 14 15
12 3 4 6 7 6 7 4 3 4 3 2 2 1 2 1 3 2 2 2 1 3 3 3 3 7 2 3 4 5 7 5 3 4 4 6 9 11 12 13 14 16 17 16 16 16 16 16 15 14 15 15 13 13
4 2 7 5 2 3 3 4 3 2 2 1 2 2 1 2 1 1 2 1 3 3 4 5 3 3 5 5 5 5 5 4 4 6 9 11 11 12 13 17 17 16 16 16 15 15 15 14 13 11 13 12 11 10
3 2 7 6 3 3 2 2 3 2 1 1 2 1 1 2 3 2 1 1 1 2 2 1 3 4 6 4 5 5 6 6 10 12 13 17 15 16 16 17 17 17 16 15 14 10 10 13 11 10 9 9 8 6
5 5 6 6 4 3 2 1 2 3 0 2 1 1 2 2 2 1 1 2 2 1 1 3 5 3 3 6 9 11 12 11 11 14 15 12 10 14 15 14 11 14 11 12 11 11 9 9 8 8 7 7 6 7
3 2 3 3 3 4 3 1 2 1 1 1 1 2 2 2 1 1 0 2 1 3 3 3 4 6 9 10 11 11 12 11 11 11 14 15 11 11 12 12 12 10 8 8 8 9 9 8 9 7 7 7 5 5
1 2 2 2 3 2 3 0 1 2 1 2 3 2 0 1 1 1 1 1 1 2 2 3 7 9 11 14 13 14 16 17 16 13 18 16 13 11 11 11 8 8 7 7 7 8 8 7 6 6 1 2 1 3
1 2 1 2 1 2 1 1 0 0 1 1 2 2 1 1 1 1 1 2 2 3 5 8 10 13 14 16 16 17 16 15 11 12 12 11 11 11 11 10 7 7 8 7 5 5 5 7 4 6 6 8 10 11
1 2 2 1 2 1 1 0 0 0 1 1 1 1 2 2 1 1 2 2 3 3 4 9 9 10 10 13 10 11 12 10 11 10 9 8 9 9 8 5 5 6 6 4 2 1 6 6 7 8 11 12 13 14
3 0 2 1 0 1 2 1 2 2 2 3 2 2 2 2 1 0 1 3 3 4 7 8 9 9 9 10 10 11 14 10 9 10 10 8 7 6 4 3 2 2 1 3 7 9 8 8 8 11 12 12 15 15
1 3 4 2 3 2 2 1 2 3 2 2 2 1 1 2 1 2 3 3 3 4 8 9 10 11 11 10 12 12 12 12 10 9 9 6 6 6 3 2 2 2 3 8 8 10 9 10 9 10 10 11 12 15
1 2 3 2 1 2 2 2 2 1 2 2 2 2 1 1 2 3 3 2 3 6 7 9 8 9 10 12 12 11 11 11 9 8 7 5 5 4 3 2 4 3 9 8 9 10 14 13 13 11 9 10 10 10
3 2 3 4 3 2 2 2 3 3 2 1 2 1 3 5 2 1 2 4 5 7 7 7 7 7 9 11 10 9 11 11 10 7 2 5 7 7 7 5 4 13 10 9 9 12 12 11 11 9 9 11 10 9
3 2 3 3 4 3 4 3 2 2 3 2 3 1 1 1 1 1 3 4 5 5 7 9 9 9 9 10 10 10 9 10 13 16 17 10 8 9 7 8 10 10 8 8 8 10 13 10 10 8 9 10 10 10
4 4 3 3 3 4 3 5 3 3 2 3 4 2 1 0 2 1 3 5 6 7 7 7 7 7 9 10 12 14 10 9 9 6 7 10 8 7 9 10 10 6 6 9 9 10 11 10 9 9 10 9 9 10
4 4 2 3 2 3 3 3 2 2 2 3 2 3 2 2 1 1 3 3 4 6 7 9 9 8 9 11 10 11 11 8 12 10 8 6 7 7 6 5 4 5 7 10 10 10 9 9 9 10 11 11 11 12
4 6 4 3 1 1 2 2 2 2 1 2 1 2 1 2 2 3 3 4 4 7 7 7 8 9 10 8 8 7 6 5 7 8 11 7 7 6 5 4 4 5 7 9 9 10 12 10 10 11 12 13 12 14
3 3 2 3 2 3 2 4 2 1 2 2 1 2 1 2 1 2 2 2 1 4 7 8 8 7 9 10 8 8 8 7 6 8 11 9 7 8 5 4 4 5 8 8 8 10 13 14 11 12 12 12 12 13
Wind_Direction
252 244 252 197 191 184 183 186 184 185 186 186 188 185 156 53 27 94 232 348 112 127 274 230 256 154 94 94 144 265 45 340 50 107 152 204 179 224 196 233 192 183 165 209 110 217 275 340 345 209 227 347 5 2
251 230 233 204 191 184 179 180 179 178 180 182 180 176 156 98 40 97 87 340 25 114 229 268 256 243 189 188 142 334 187 177 187 98 189 106 177 66 162 236 37 237 191 192 175 217 249 283 248 203 186 159 175 204
246 228 215 208 190 182 174 174 174 174 176 175 172 168 156 114 55 101 124 338 62 54 319 1 255 12 134 193 170 139 282 174 131 151 147 148 227 132 184 234 211 254 163 213 37 225 199 200 62 65 24 354 303 239
233 224 224 213 185 178 171 169 169 171 172 167 164 163 150 128 84 101 104 225 87 109 116 280 315 300 219 165 172 162 147 73 99 77 102 136 197 158 222 252 185 200 141 208 258 281 271 255 224 156 355 347 322 287
225 221 223 204 184 175 168 165 163 168 163 161 160 156 149 131 112 89 91 132 94 130 193 279 300 282 300 178 168 137 131 112 104 81 99 221 224 166 209 69 241 201 198 217 258 215 221 222 230 262 272 261 255 259
218 218 226 189 176 171 165 160 159 156 157 161 157 146 138 149 150 186 78 43 14 159 89 321 297 312 336 116 123 125 116 97 103 139 201 255 248 159 194 223 256 248 266 222 259 237 221 244 269 271 270 268 270 255
205 212 186 175 175 172 161 158 155 155 154 156 147 147 151 128 70 90 184 175 111 85 95 312 318 317 327 94 50 78 44 104 118 140 194 210 272 149 157 217 246 248 251 256 232 228 280 233 249 264 244 259 264 256
183 181 170 171 169 165 157 152 147 147 151 140 136 134 132 145 36 47 318 192 131 95 74 166 274 341 7 27 107 1 94 41 15 170 102 197 337 127 245 240 247 253 260 285 272 236 242 251 286 268 248 259 271 266
161 161 164 163 160 157 150 145 145 139 130 133 130 130 102 61 111 201 130 100 65 112 138 117 200 232 357 19 57 43 56 101 356 201 240 121 205 225 227 219 222 229 207 239 265 265 276 250 251 257 266 256 239 264
156 159 156 151 147 140 136 136 129 128 130 128 98 108 111 217 187 128 11 31 24 356 43 187 86 266 79 9 44 104 25 198 222 242 106 182 248 249 249 228 218 204 228 239 253 287 267 270 265 272 255 253 239 251
111 122 134 136 132 126 123 123 124 124 117 107 129 85 195 51 73 44 79 99 347 355 188 229 185 227 293 103 190 86 172 201 307 268 181 247 265 250 237 232 214 201 212 233 236 263 260 248 264 275 280 271 267 261
73 89 104 110 112 113 116 119 125 117 146 150 117 102 82 65 59 113 129 108 185 219 206 179 221 195 276 101 100 2 172 48 250 116 172 266 253 267 237 236 241 231 233 243 230 242 256 251 245 252 258 256 255 255
74 80 89 95 100 104 111 126 116 120 122 71 76 91 104 59 70 186 171 224 219 202 199 173 158 159 28 55 55 96 220 237 353 208 234 235 260 266 237 249 269 269 267 264 267 256 256 259 260 265 269 264 273 268
87 92 97 105 112 106 92 88 102 117 79 87 116 96 148 178 224 193 179 187 230 160 132 111 75 125 234 62 111 216 244 29 262 236 236 244 239 251 256 264 272 270 269 269 270 275 273 272 284 282 279 279 275 271
88 90 92 102 110 105 117 120 130 105 103 95 94 122 175 203 187 215 212 331 247 135 111 75 47 87 18 102 202 330 264 246 226 229 234 254 288 290 276 265 258 261 268 270 275 280 279 284 281 281 276 272 269 269
78 64 51 92 108 111 93 49 37 65 61 72 81 91 81 80 358 8 241 264 165 128 87 62 92 60 262 185 156 223 228 227 239 221 243 263 278 274 268 271 276 281 282 283 284 278 280 280 276 275 277 272 268 271
72 56 99 97 93 67 39 65 35 45 69 52 20 61 127 147 193 225 180 249 143 86 154 122 167 215 121 227 228 209 221 231 240 282 277 250 266 283 285 287 287 285 283 279 276 277 275 276 277 274 274 276 275 269
66 25 87 113 73 37 27 42 67 76 67 50 93 270 218 199 204 270 223 164 123 157 144 208 148 167 220 219 232 239 254 283 268 268 279 285 282 279 281 280 280 278 275 274 274 276 276 280 280 274 278 277 277 272
145 99 61 57 76 93 72 17 72 81 272 256 282 298 260 264 244 269 191 139 189 175 130 99 253 215 236 250 286 312 294 285 293 293 287 287 282 280 281 278 277 277 273 276 278 275 276 277 274 278 277 279 274 272
92 57 44 32 46 65 62 54 94 108 43 252 295 332 277 243 324 10 40 48 55 59 259 227 234 273 237 292 298 290 289 287 282 288 291 285 279 278 277 279 276 278 280 274 273 269 273 274 272 267 264 264 266 271
68 36 45 57 40 65 105 7 45 122 315 3 320 5 303 3 21 49 222 154 154 208 257 247 258 283 303 290 281 276 277 274 270 270 282 289 287 284 284 278 277 277 269 268 274 277 266 265 276 273 270 272 250 255
39 59 55 1 62 52 64 347 110 322 48 269 349 332 10 23 310 237 140 217 246 257 245 286 288 290 291 287 284 281 278 279 277 276 274 270 275 273 270 271 265 265 265 256 251 265 278 284 278 283 303 344 11 81
178 46 29 76 105 81 226 35 162 51 267 341 335 301 169 240 259 125 267 229 247 236 268 283 284 283 280 284 284 282 281 278 273 271 271 270 268 267 267 265 257 250 261 264 248 264 279 303 40 81 86 81 86 87
20 52 55 62 26 55 316 83 65 219 294 244 197 247 210 220 141 208 262 272 247 263 297 305 302 302 305 308 303 296 300 297 288 284 283 277 276 278 270 258 237 235 240 260 261 309 89 77 73 78 87 87 85 84
76 309 152 205 113 228 221 219 202 207 245 204 216 197 209 179 146 105 296 279 277 306 310 312 311 307 304 298 297 304 306 301 300 299 299 296 293 297 272 268 248 269 110 128 114 106 91 87 76 88 82 76 88 93
249 196 185 220 166 203 203 253 209 214 217 232 192 158 273 124 115 233 241 253 267 313 322 316 312 309 310 310 304 306 309 311 312 308 306 302 302 294 303 333 92 57 57 113 110 111 109 103 93 96 84 83 88 104
273 238 203 235 240 194 235 239 286 322 278 238 158 137 110 106 265 266 295 295 297 310 299 296 301 300 301 305 304 309 311 310 313 307 305 327 359 13 11 42 82 78 114 103 96 97 110 109 115 118 92 83 94 101
240 216 192 159 208 245 272 199 203 223 227 184 103 78 143 171 223 309 253 283 296 297 295 297 299 303 306 306 309 318 324 338 340 2 5 36 32 24 28 60 64 98 107 91 92 106 111 103 111 115 102 88 96 93
233 222 171 220 218 196 217 213 203 209 165 122 111 119 192 223 146 356 298 307 301 307 327 332 335 333 331 335 343 348 350 354 360 10 23 20 21 25 39 74 94 101 86 75 68 104 116 115 123 116 90 99 103 105
240 169 195 234 209 223 238 169 170 148 94 117 120 99 72 145 178 254 315 349 347 339 324 314 314 332 343 344 340 342 350 358 1 3 5 15 6 22 53 69 90 70 80 94 100 101 97 107 90 88 88 90 95 98
143 169 228 226 209 204 160 127 70 89 105 92 76 105 139 166 278 292 342 337 335 336 338 342 339 344 348 345 342 338 338 345 346 348 357 6 20 24 27 43 69 84 92 103 110 116 119 120 114 107 100 100 104 108
172 185 180 146 122 67 116 89 129 100 79 77 75 102 127 79 13 310 336 351 345 354 340 329 337 331 326 328 327 329 316 350 348 343 3 9 4 359 16 48 60 79 87 93 105 115 115 116 112 113 112 114 113 114
140 160 144 104 116 168 196 109 109 85 75 113 162 133 122 146 147 252 304 22 340 315 326 317 311 310 306 320 330 338 343 357 351 354 12 28 34 23 23 23 58 79 93 92 101 114 109 111 109 111 116 119 116 112